Terug naar catalogus

HULIANWANG DIGUI-76

ActiefCommunicatieLEO
NORAD 65308·PAYLOAD·🇨🇳 China

Gelanceerd Aug 25, 2025 vanaf Wenchang Space Launch Site

Loading…

Volgende Passages (komende 24 uur)

TLE

VersSource: Space-Track

Epoch: Sep 14, 2026, 22:14 UTC

1 65308U 25187D   26257.92691057 -.00000096  00000-0  60268-4 0  9998
2 65308  49.9996 244.1301 0000706 330.3016  29.7816 13.29326535 51631

Volg HULIANWANG DIGUI-76 in realtime met AllMySat

Download on the App Store